SLLP Airport Information

Runway Information
Runway 10 Length 13123 ft width 151 ft
Elevation 13110 ft Threshold 0 ft Heading 92
Runway 28 Length 13123 ft Width 151 ft
Elevation 13314 ft Threshold 0 ft Heading 272
Runway 10L Length 6725 ft width 300 ft
Elevation 13202 ft Threshold 0 ft Heading 98
Runway 28R Length 6725 ft Width 300 ft
Elevation 13307 ft Threshold 0 ft Heading 278
Airport Frequencies
Type APP Name LA PAZ APP Frequency 119.5 MHZ
Type GCCD Name GND Frequency 121.9 MHZ
Type INFO Name LA PAZ FIS Frequency 127.1 MHZ
Type RDO Name LA PAZ RDO Frequency 662.2 MHZ
Type TWR Name LA PAZ TWR Frequency 118.3 MHZ
Airport Navaids
Type NDB Name La Paz Frequency 350 KHZ
Type VOR-DME Name La Paz Frequency 115700 KHZ
Airport Weather Information & NOTAM
ADDS - METARS form results

(1533 UTC 21 April 2018)
 
METAR text: SLLP 211500Z 15004KT 100V210 9999 SCT015 BKN200 10/01 Q1040
Conditions at: SLLP (LA PAZ/JFK INTL , BO) observed 1500 UTC 21 April 2018
Temperature: 10.0°C (50°F)
Dewpoint: 1.0°C (34°F) [RH = 53%]
Pressure (altimeter): 30.71 inches Hg (1040.0 mb)
Winds: from the SSE (150 degrees) at 5 MPH (4 knots; 2.1 m/s)
Visibility: 6 or more miles (10+ km)
Ceiling: 20000 feet AGL
Clouds: scattered clouds at 1500 feet AGL
broken clouds at 20000 feet AGL
Weather: no significant weather observed at this time